STARLINK-34367, 64452

Orbit data source: Space-Track

STARLINK-34367, 64452 is a payload satellite owned by SpaceX/Seattle (US) in LEO that was launched on Wed, 18 Jun 2025 UTC via an FALCON 9 launch vehicle from the Air Force Eastern Test Range (AFETR). Payload-class satellites include a variety of spacecraft equipped with specific instruments for various scientific and technological missions. These include communications satellites like Starlink; space stations such as the ISS; scientific satellites like the Hubble; Earth observation satellites from companies like Planet Labs, Umbra, and HawkEye 360; GPS; miniature CubeSats for education and research; and military/defense satellites.

Loading next visibility...
Identifier
64452, 2025-130Q
Orbit
LEO
Country
Flag of USUS
Related business
Manufacturer
SpaceX/Seattle
Mission
Operational Commercial Communications
Bus & Motor
STARLINK V2MO, Unknown motor
Mass
575 kg wet, ~530 kg dry
Launch date (UTC)
2025-06-18 (1 year ago)
Launch vehicle
FALCON 9
Launch site
Air Force Eastern Test Range (AFETR)
Object type
Payload
Rocket body
Debris
Shape & HBR
Box + 2 Pan, 17.7 m
Radar Cross Section
36.964 m², Large (>1 m²)

Expand to show TLE details & history
Last TLE update: 17 hours ago

TLE from 17 hours ago
0 STARLINK-34367
1 64452U 25130Q   26171.15539492  .00017234  00000-0  59260-3 0  9999
2 64452  53.1614 332.4079 0001500  92.8556 267.2617 15.30202841 56381
Epoch: 2026-06-20T03:43Z
TLE epoch observation values (Epoch: 2026-06-20T03:43:46.121Z)
Latitude
0.00004°
Longitude
8.09168°
Altitude
476.156 km
Speed
7.629 km/s
True Right ascension
22h 09m 37s
True Declination
0° 00' 00"
Sunlit
Object was in full shadow at epoch
Visualization orbit readout
Latitude
Unknown
Longitude
Unknown
Altitude
Unknown
Speed
Unknown
Apparent Right ascension
Unknown
Apparent Declination
Unknown
Sunlit
N/A
Visualization observer readout
Local Sidereal Time
07:14:10
Azimuth
Unknown
Elevation
Unknown
Doppler factor
Unknown
Orbital elements
Apogee altitude
476.491 km
Perigee altitude
474.435 km
Semi-major axis
6,853.6 km
Eccentricity
0.00015
Inclination
53.1614°
RAAN
332.4079°
Arg. of periapsis
92.8556°
True anomaly
267.24453°
Mean anomaly
267.2617°
Eccentric anomaly
267.25312°
Mean motion
3.8253 °/min
Orbital period
94.11 mins
BSTAR
0.0005926
Loading maneuver chart data...
Computing Atmospheric mass density...
Loading historical data...
Loading historical data...
Loading historical data...
Loading historical data...
Loading historical data...
Loading historical data...
Loading historical data...

Documentation

Showing up to 5 results
|